Flag for U.S.A. Weather past 2 weeks in Manhattan, Kansas, U.S.A.

Now
83 °F

Sunny.


Feels Like: 82 °F
Forecast: 58 / 84 °F
Wind: 3 mph from Northeast

Location: Manhattan Municipal Airport

Current Time: Jul 31, 2014 at 3:20:39 PM

Latest Report: Jul 31, 2014 at 2:52 PM


Visibility: 10 mi

Pressure: 30.06 "Hg

Humidity: 34%

Dew point: 52 °F

Location of ManhattanLocation

Historic Weather in Manhattan — Graph

°F

Manhattan temperature yesterday

Maximum temperature yesterday: 80 °F (at 5:52 PM)
Minimum temperature yesterday: 61 °F (at 11:52 PM)
Average temperature yesterday: 70 °F

Past Weeks' High & Low Weather Summary

 TemperatureHumidityPressure
High106 °F (Jul 25, 3:52 PM)97% (Jul 31, 4:52 AM)30.26 "Hg (Jul 31, 4:52 AM)
Low55 °F (Jul 31, 5:52 AM)23% (Jul 27, 2:52 PM)29.68 "Hg (Jul 25, 6:52 PM)
Average78 °F62%29.99 "Hg
* Reported Jul 16 1:52 PM — Jul 31 1:52 PM, Manhattan, Weather by CustomWeather, © 2014

Note: Actual official high and low records may vary slightly from our data, if they occured in-between our weather recording intervals... More about our weather records

Advertising

Manhattan weather history for previous 24 hours

 ConditionsComfort  
Time TempWeatherWind HumidityBarometerVisibility
1:52 PM
Jul 31
82 °FSunny.3 mph35%30.07 "Hg10 mi
12:52 PM80 °FSunny.3 mph39%30.09 "Hg10 mi
11:52 AM80 °FSunny.No wind36%30.11 "Hg10 mi
10:52 AM77 °FSunny.6 mph50%30.11 "Hg10 mi
9:52 AM72 °FSunny.No wind68%30.11 "Hg10 mi
8:52 AM64 °FSunny.No wind87%30.12 "Hg9 mi
7:52 AM60 °FSunny.No wind93%30.11 "Hg8 mi
6:52 AM56 °FFog.No wind93%30.11 "Hg4 mi
5:52 AM55 °FFog.No wind96%30.11 "Hg4 mi
4:52 AM56 °FClear.No wind97%30.11 "Hg9 mi
3:59 AM57 °FFog.No wind96%30.12 "Hg2 mi
2:52 AM59 °FClear.No wind93%30.10 "Hg7 mi
1:52 AM59 °FClear.No wind93%30.10 "Hg10 mi
12:52 AM60 °FClear.No wind93%30.11 "Hg10 mi
11:52 PM
Jul 30
61 °FClear.No wind90%30.11 "Hg10 mi
10:52 PM62 °FClear.No wind86%30.10 "Hg10 mi
9:52 PM65 °FClear.No wind76%30.09 "Hg10 mi
8:52 PM69 °FSunny.No wind68%30.07 "Hg10 mi
7:52 PM76 °FPassing clouds.6 mph48%30.06 "Hg10 mi
6:52 PM78 °FScattered clouds.6 mph40%30.06 "Hg10 mi
5:52 PM80 °FScattered clouds.3 mph42%30.06 "Hg10 mi
4:52 PM78 °FPassing clouds.5 mph46%30.07 "Hg10 mi
3:52 PM77 °FSunny.5 mph50%30.08 "Hg10 mi
Weather by CustomWeather, © 2014

See weather overviewHow to use our weather pages